This is the latest recevied weather packets stored in our database for station/object SP3SWJ-13. If no packets are shown the sender has not sent any weather packets the latest 10 day(s).
| Time | Temp. | Humidity | Pressure | Rain* | Wind** | Luminosity | Snow |
|---|---|---|---|---|---|---|---|
| 1778004695 | 15.56° C | 70% | 998.6 hPa | - | - | 3 W/m² | - |
| 1778004393 | 15.56° C | 70% | 998.5 hPa | - | - | 4 W/m² | - |
| 1778004093 | 15.56° C | 70% | 998.4 hPa | - | - | 6 W/m² | - |
| 1778003792 | 15.56° C | 69% | 998.3 hPa | - | - | 8 W/m² | - |
| 1778003491 | 15.56° C | 69% | 998.4 hPa | - | - | 11 W/m² | - |
| 1778003190 | 15.56° C | 68% | 998.4 hPa | - | - | 13 W/m² | - |
| 1778002889 | 15.56° C | 69% | 998.4 hPa | - | - | 16 W/m² | - |
| 1778002588 | 15.56° C | 69% | 998.2 hPa | - | - | 19 W/m² | - |
| 1778002287 | 16.11° C | 68% | 998.3 hPa | - | - | 20 W/m² | - |
| 1778001986 | 16.11° C | 68% | 998.3 hPa | - | - | 21 W/m² | - |
| 1778001685 | 16.11° C | 67% | 998.4 hPa | - | - | 24 W/m² | - |
| 1778001385 | 16.11° C | 67% | 998.3 hPa | - | - | 28 W/m² | - |
| 1778001084 | 16.11° C | 67% | 998.3 hPa | - | - | 30 W/m² | - |
| 1778000782 | 16.11° C | 67% | 998.3 hPa | - | - | 36 W/m² | - |
| 1778000481 | 16.11° C | 66% | 998.2 hPa | - | - | 39 W/m² | - |
| 1778000180 | 16.11° C | 67% | 998.3 hPa | - | - | 43 W/m² | - |
| 1777999880 | 16.67° C | 66% | 998.3 hPa | - | - | 50 W/m² | - |
| 1777999578 | 16.67° C | 65% | 998.3 hPa | - | - | 57 W/m² | - |
| 1777999278 | 16.67° C | 66% | 998.2 hPa | - | - | 60 W/m² | - |
| 1777998977 | 16.67° C | 66% | 998.3 hPa | - | - | 53 W/m² | - |
| 1777998676 | 16.67° C | 66% | 998.3 hPa | - | - | 34 W/m² | - |
| 1777998375 | 16.11° C | 66% | 998.3 hPa | - | - | 33 W/m² | - |
| 1777998074 | 16.67° C | 65% | 998.3 hPa | - | - | 39 W/m² | - |
| 1777997773 | 16.67° C | 65% | 998.4 hPa | - | - | 48 W/m² | - |
| 1777997472 | 16.67° C | 65% | 998.4 hPa | - | - | 44 W/m² | - |
* Rain since midnight (hover to see other rain measurements)
** Current wind speed in m/s (hover to see current wind gust speed)